www.cux-wetter.de
Wetterdaten: Freitag, 12.10.2007
Datum Zeit Temp. A. Feuchte A. Luftdruck Regen Wind Richtung Richtung Sonnenschein Solar Taupunkt Windchill Windben
12.10.2007 03:04 14,1 C 98 % 1016,5 hPa 0,3 l/m 22,5 km/h (4 Bft) W-NW 295 0 min 0 W/m 13,8 C 8,0 C 22,5 km/h (4 Bft)
12.10.2007 03:09 14,1 C 98 % 1016,5 hPa 0,0 l/m 19,1 km/h (3 Bft) W-NW 295 0 min 0 W/m 13,8 C 8,8 C 19,1 km/h (3 Bft)
12.10.2007 03:14 14,2 C 97 % 1016,5 hPa 0,0 l/m 24,3 km/h (4 Bft) W-NW 300 0 min 0 W/m 13,7 C 7,7 C 24,3 km/h (4 Bft)
12.10.2007 03:19 14,2 C 97 % 1016,5 hPa 0,0 l/m 19,4 km/h (3 Bft) W-NW 285 0 min 0 W/m 13,7 C 8,9 C 19,4 km/h (3 Bft)
12.10.2007 03:24 14,1 C 97 % 1016,5 hPa 0,0 l/m 20,8 km/h (4 Bft) W-NW 295 0 min 0 W/m 13,6 C 8,4 C 20,8 km/h (4 Bft)
12.10.2007 03:29 14,1 C 97 % 1015,5 hPa 0,0 l/m 19,5 km/h (3 Bft) W-NW 295 0 min 0 W/m 13,6 C 8,7 C 19,5 km/h (3 Bft)
12.10.2007 03:34 14,1 C 97 % 1015,5 hPa 0,0 l/m 27,3 km/h (5 Bft) W-NW 290 0 min 0 W/m 13,6 C 6,9 C 27,3 km/h (5 Bft)
12.10.2007 03:39 14,1 C 97 % 1015,5 hPa 0,0 l/m 24,6 km/h (4 Bft) W-NW 295 0 min 0 W/m 13,6 C 7,5 C 24,6 km/h (4 Bft)
12.10.2007 03:44 14,2 C 97 % 1015,5 hPa 0,0 l/m 23,6 km/h (4 Bft) NW 305 0 min 0 W/m 13,7 C 7,8 C 23,6 km/h (4 Bft)
12.10.2007 03:49 14,1 C 97 % 1015,5 hPa 0,0 l/m 22,2 km/h (4 Bft) W-NW 295 0 min 0 W/m 13,6 C 8,0 C 22,2 km/h (4 Bft)
12.10.2007 03:54 14,0 C 96 % 1015,5 hPa 0,0 l/m 27,0 km/h (5 Bft) W-NW 295 0 min 0 W/m 13,4 C 6,8 C 27,0 km/h (5 Bft)
12.10.2007 03:59 14,0 C 96 % 1015,5 hPa 0,0 l/m 19,7 km/h (3 Bft) W-NW 290 0 min 0 W/m 13,4 C 8,5 C 19,7 km/h (3 Bft)
12.10.2007 04:04 14,0 C 96 % 1015,5 hPa 0,0 l/m 23,0 km/h (4 Bft) W-NW 290 0 min 0 W/m 13,4 C 7,7 C 23,0 km/h (4 Bft)
12.10.2007 04:09 14,0 C 96 % 1015,5 hPa 0,0 l/m 20,0 km/h (4 Bft) W-NW 295 0 min 0 W/m 13,4 C 8,5 C 20,0 km/h (4 Bft)
12.10.2007 04:14 14,1 C 96 % 1015,5 hPa 0,0 l/m 24,0 km/h (4 Bft) W-NW 300 0 min 0 W/m 13,5 C 7,6 C 24,0 km/h (4 Bft)
12.10.2007 04:19 14,1 C 96 % 1015,5 hPa 0,0 l/m 19,5 km/h (3 Bft) NW 305 0 min 0 W/m 13,5 C 8,7 C 19,5 km/h (3 Bft)
12.10.2007 04:24 14,0 C 96 % 1015,5 hPa 0,0 l/m 22,9 km/h (4 Bft) NW 305 0 min 0 W/m 13,4 C 7,7 C 22,9 km/h (4 Bft)
12.10.2007 04:29 14,1 C 96 % 1015,5 hPa 0,0 l/m 23,0 km/h (4 Bft) W-NW 295 0 min 0 W/m 13,5 C 7,8 C 23,0 km/h (4 Bft)
12.10.2007 04:34 14,1 C 95 % 1015,5 hPa 0,0 l/m 20,6 km/h (4 Bft) W-NW 285 0 min 0 W/m 13,3 C 8,4 C 20,6 km/h (4 Bft)
12.10.2007 04:39 14,1 C 95 % 1015,5 hPa 0,0 l/m 19,5 km/h (3 Bft) W-NW 295 0 min 0 W/m 13,3 C 8,7 C 19,5 km/h (3 Bft)
12.10.2007 04:44 14,1 C 95 % 1015,5 hPa 0,0 l/m 21,9 km/h (4 Bft) W-NW 295 0 min 0 W/m 13,3 C 8,1 C 21,9 km/h (4 Bft)
12.10.2007 04:49 14,1 C 95 % 1015,5 hPa 0,0 l/m 18,0 km/h (3 Bft) W-NW 300 0 min 0 W/m 13,3 C 9,1 C 18,0 km/h (3 Bft)
12.10.2007 04:54 14,1 C 95 % 1015,5 hPa 0,0 l/m 20,5 km/h (4 Bft) W-NW 300 0 min 0 W/m 13,3 C 8,5 C 20,5 km/h (4 Bft)
12.10.2007 04:59 14,2 C 94 % 1015,5 hPa 0,0 l/m 21,8 km/h (4 Bft) NW 310 0 min 0 W/m 13,2 C 8,3 C 21,8 km/h (4 Bft)
12.10.2007 05:04 14,2 C 94 % 1015,5 hPa 0,0 l/m 20,4 km/h (4 Bft) NW 305 0 min 0 W/m 13,2 C 8,6 C 20,4 km/h (4 Bft)
12.10.2007 05:09 14,2 C 94 % 1015,5 hPa 0,0 l/m 23,8 km/h (4 Bft) NW 315 0 min 0 W/m 13,2 C 7,8 C 23,8 km/h (4 Bft)
12.10.2007 05:14 14,3 C 94 % 1015,5 hPa 0,0 l/m 19,5 km/h (3 Bft) NW 305 0 min 0 W/m 13,3 C 9,0 C 19,5 km/h (3 Bft)
12.10.2007 05:19 14,3 C 94 % 1015,5 hPa 0,0 l/m 23,1 km/h (4 Bft) W-NW 300 0 min 0 W/m 13,3 C 8,1 C 23,1 km/h (4 Bft)
12.10.2007 05:24 14,3 C 93 % 1015,5 hPa 0,0 l/m 25,9 km/h (4 Bft) NW 315 0 min 0 W/m 13,2 C 7,5 C 25,9 km/h (4 Bft)
12.10.2007 05:29 14,2 C 93 % 1015,5 hPa 0,0 l/m 26,0 km/h (4 Bft) NW 310 0 min 0 W/m 13,1 C 7,3 C 26,0 km/h (4 Bft)
12.10.2007 05:34 14,2 C 93 % 1014,5 hPa 0,0 l/m 24,3 km/h (4 Bft) NW 315 0 min 0 W/m 13,1 C 7,7 C 24,3 km/h (4 Bft)
12.10.2007 05:39 14,1 C 93 % 1014,5 hPa 0,0 l/m 26,5 km/h (4 Bft) NW 305 0 min 0 W/m 13,0 C 7,1 C 26,5 km/h (4 Bft)
12.10.2007 05:44 14,2 C 93 % 1014,5 hPa 0,0 l/m 22,4 km/h (4 Bft) NW 305 0 min 0 W/m 13,1 C 8,1 C 22,4 km/h (4 Bft)
12.10.2007 05:49 14,2 C 93 % 1014,5 hPa 0,0 l/m 25,2 km/h (4 Bft) NW 315 0 min 0 W/m 13,1 C 7,5 C 25,2 km/h (4 Bft)
12.10.2007 05:54 14,2 C 93 % 1014,5 hPa 0,0 l/m 28,4 km/h (5 Bft) NW 315 0 min 0 W/m 13,1 C 6,8 C 28,4 km/h (5 Bft)
12.10.2007 05:59 14,2 C 93 % 1014,5 hPa 0,0 l/m 23,0 km/h (4 Bft) NW 305 0 min 0 W/m 13,1 C 8,0 C 23,0 km/h (4 Bft)
12.10.2007 06:04 14,2 C 93 % 1014,5 hPa 0,0 l/m 19,3 km/h (3 Bft) NW 310 0 min 0 W/m 13,1 C 8,9 C 19,3 km/h (3 Bft)
12.10.2007 06:09 14,2 C 93 % 1014,5 hPa 0,0 l/m 19,3 km/h (3 Bft) NW 310 0 min 0 W/m 13,1 C 8,9 C 19,3 km/h (3 Bft)
12.10.2007 06:14 14,2 C 92 % 1014,5 hPa 0,0 l/m 29,9 km/h (5 Bft) NW 315 0 min 0 W/m 12,9 C 6,6 C 29,9 km/h (5 Bft)
12.10.2007 06:19 14,2 C 92 % 1014,5 hPa 0,0 l/m 20,6 km/h (4 Bft) NW 305 0 min 0 W/m 12,9 C 8,6 C 20,6 km/h (4 Bft)
12.10.2007 06:24 14,2 C 92 % 1014,5 hPa 0,0 l/m 22,5 km/h (4 Bft) W-NW 300 0 min 0 W/m 12,9 C 8,1 C 22,5 km/h (4 Bft)
12.10.2007 06:29 14,3 C 92 % 1014,5 hPa 0,0 l/m 23,3 km/h (4 Bft) NW 310 0 min 0 W/m 13,0 C 8,0 C 23,3 km/h (4 Bft)
12.10.2007 06:34 14,3 C 92 % 1014,5 hPa 0,0 l/m 23,8 km/h (4 Bft) NW 305 0 min 0 W/m 13,0 C 7,9 C 23,8 km/h (4 Bft)
12.10.2007 06:39 14,3 C 91 % 1014,5 hPa 0,0 l/m 24,2 km/h (4 Bft) NW 315 0 min 0 W/m 12,8 C 7,8 C 24,2 km/h (4 Bft)
12.10.2007 06:44 14,3 C 91 % 1014,5 hPa 0,0 l/m 24,8 km/h (4 Bft) NW 305 0 min 0 W/m 12,8 C 7,7 C 24,8 km/h (4 Bft)
12.10.2007 06:49 14,3 C 91 % 1014,5 hPa 0,0 l/m 25,1 km/h (4 Bft) NW 310 0 min 0 W/m 12,8 C 7,6 C 25,1 km/h (4 Bft)
12.10.2007 06:54 14,3 C 91 % 1014,5 hPa 0,0 l/m 27,8 km/h (5 Bft) NW 315 0 min 0 W/m 12,8 C 7,1 C 27,8 km/h (5 Bft)
12.10.2007 06:59 14,3 C 91 % 1014,5 hPa 0,0 l/m 27,8 km/h (5 Bft) NW 315 0 min 0 W/m 12,8 C 7,1 C 27,8 km/h (5 Bft)
12.10.2007 07:04 14,3 C 91 % 1014,5 hPa 0,0 l/m 29,8 km/h (5 Bft) NW 305 0 min 0 W/m 12,8 C 6,7 C 29,8 km/h (5 Bft)
12.10.2007 07:09 14,3 C 91 % 1014,5 hPa 0,0 l/m 25,0 km/h (4 Bft) NW 320 0 min 0 W/m 12,8 C 7,7 C 25,0 km/h (4 Bft)
12.10.2007 07:14 14,2 C 91 % 1014,5 hPa 0,0 l/m 27,7 km/h (5 Bft) NW 315 0 min 0 W/m 12,8 C 7,0 C 27,7 km/h (5 Bft)
12.10.2007 07:19 14,2 C 90 % 1014,5 hPa 0,0 l/m 21,5 km/h (4 Bft) N-NW 330 0 min 0 W/m 12,6 C 8,3 C 21,5 km/h (4 Bft)
12.10.2007 07:24 14,1 C 90 % 1014,5 hPa 0,0 l/m 31,1 km/h (5 Bft) N-NW 330 0 min 0 W/m 12,5 C 6,2 C 31,1 km/h (5 Bft)
12.10.2007 07:29 14,0 C 89 % 1014,5 hPa 0,0 l/m 27,6 km/h (5 Bft) N-NW 330 0 min 0 W/m 12,2 C 6,7 C 27,6 km/h (5 Bft)
12.10.2007 07:34 13,7 C 89 % 1014,5 hPa 0,0 l/m 30,3 km/h (5 Bft) N-NW 330 0 min 0 W/m 11,9 C 5,8 C 30,3 km/h (5 Bft)
12.10.2007 07:39 13,7 C 90 % 1014,5 hPa 0,0 l/m 30,5 km/h (5 Bft) N-NW 340 0 min 0 W/m 12,1 C 5,8 C 30,5 km/h (5 Bft)
12.10.2007 07:44 13,6 C 90 % 1014,5 hPa 0,0 l/m 29,4 km/h (5 Bft) NW 315 0 min 0 W/m 12,0 C 5,8 C 29,4 km/h (5 Bft)
12.10.2007 07:49 13,6 C 90 % 1014,5 hPa 0,0 l/m 23,9 km/h (4 Bft) NW 325 0 min 0 W/m 12,0 C 7,0 C 23,9 km/h (4 Bft)
12.10.2007 07:54 13,6 C 90 % 1014,5 hPa 0,0 l/m 27,6 km/h (5 Bft) NW 325 0 min 0 W/m 12,0 C 6,2 C 27,6 km/h (5 Bft)
12.10.2007 07:59 13,7 C 89 % 1014,5 hPa 0,0 l/m 23,3 km/h (4 Bft) NW 325 0 min 0 W/m 11,9 C 7,2 C 23,3 km/h (4 Bft)
12.10.2007 08:04 13,6 C 87 % 1014,5 hPa 0,0 l/m 32,6 km/h (5 Bft) N-NW 345 0 min 0 W/m 11,5 C 5,3 C 32,6 km/h (5 Bft)
12.10.2007 08:09 13,6 C 86 % 1014,5 hPa 0,0 l/m 27,9 km/h (5 Bft) NW 315 0 min 0 W/m 11,3 C 6,1 C 27,9 km/h (5 Bft)
12.10.2007 08:14 13,6 C 85 % 1014,5 hPa 0,0 l/m 32,2 km/h (5 Bft) NW 325 0 min 0 W/m 11,1 C 5,3 C 32,2 km/h (5 Bft)
12.10.2007 08:19 13,5 C 85 % 1014,5 hPa 0,0 l/m 25,5 km/h (4 Bft) N-NW 335 0 min 0 W/m 11,0 C 6,5 C 25,5 km/h (4 Bft)
12.10.2007 08:24 13,6 C 86 % 1014,5 hPa 0,0 l/m 24,4 km/h (4 Bft) N-NW 330 0 min 0 W/m 11,3 C 6,8 C 24,4 km/h (4 Bft)
12.10.2007 08:29 13,6 C 86 % 1014,5 hPa 0,0 l/m 33,0 km/h (5 Bft) N-NW 330 0 min 0 W/m 11,3 C 5,2 C 33,0 km/h (5 Bft)
12.10.2007 08:34 13,4 C 85 % 1014,5 hPa 0,0 l/m 31,7 km/h (5 Bft) NW 325 0 min 0 W/m 10,9 C 5,1 C 31,7 km/h (5 Bft)
12.10.2007 08:39 13,5 C 85 % 1014,5 hPa 0,0 l/m 29,6 km/h (5 Bft) N-NW 330 0 min 0 W/m 11,0 C 5,7 C 29,6 km/h (5 Bft)
12.10.2007 08:44 13,5 C 84 % 1014,5 hPa 0,0 l/m 29,6 km/h (5 Bft) N-NW 330 0 min 0 W/m 10,8 C 5,7 C 29,6 km/h (5 Bft)
12.10.2007 08:49 13,5 C 84 % 1014,5 hPa 0,0 l/m 37,2 km/h (5 Bft) NW 320 0 min 0 W/m 10,8 C 4,4 C 37,2 km/h (5 Bft)
12.10.2007 08:54 13,6 C 83 % 1014,5 hPa 0,0 l/m 31,1 km/h (5 Bft) N-NW 340 0 min 0 W/m 10,8 C 5,5 C 31,1 km/h (5 Bft)
12.10.2007 08:59 13,6 C 83 % 1015,5 hPa 0,0 l/m 22,0 km/h (4 Bft) N-NW 340 0 min 0 W/m 10,8 C 7,4 C 22,0 km/h (4 Bft)
12.10.2007 09:04 13,7 C 82 % 1015,5 hPa 0,0 l/m 23,6 km/h (4 Bft) N-NW 345 0 min 0 W/m 10,7 C 7,2 C 23,6 km/h (4 Bft)
12.10.2007 09:09 13,8 C 82 % 1015,5 hPa 0,0 l/m 24,5 km/h (4 Bft) N-NW 345 0 min 0 W/m 10,8 C 7,1 C 24,5 km/h (4 Bft)
12.10.2007 09:14 13,8 C 82 % 1015,5 hPa 0,0 l/m 29,0 km/h (5 Bft) N 355 0 min 0 W/m 10,8 C 6,2 C 29,0 km/h (5 Bft)
12.10.2007 09:19 13,8 C 82 % 1015,5 hPa 0,0 l/m 28,3 km/h (5 Bft) N-NW 330 0 min 0 W/m 10,8 C 6,3 C 28,3 km/h (5 Bft)
12.10.2007 09:24 13,8 C 81 % 1015,5 hPa 0,0 l/m 36,2 km/h (5 Bft) N-NW 340 0 min 0 W/m 10,6 C 5,0 C 36,2 km/h (5 Bft)
12.10.2007 09:29 13,8 C 82 % 1015,5 hPa 0,0 l/m 35,3 km/h (5 Bft) N-NW 330 0 min 0 W/m 10,8 C 5,2 C 35,3 km/h (5 Bft)
12.10.2007 09:34 13,9 C 82 % 1015,5 hPa 0,0 l/m 32,2 km/h (5 Bft) N 355 0 min 0 W/m 10,9 C 5,8 C 32,2 km/h (5 Bft)
12.10.2007 09:39 13,9 C 82 % 1015,5 hPa 0,0 l/m 25,6 km/h (4 Bft) N-NW 330 0 min 0 W/m 10,9 C 7,0 C 25,6 km/h (4 Bft)
12.10.2007 09:44 13,9 C 80 % 1015,5 hPa 0,0 l/m 38,1 km/h (6 Bft) N 355 0 min 0 W/m 10,5 C 4,9 C 38,1 km/h (6 Bft)
12.10.2007 09:49 13,9 C 78 % 1015,5 hPa 0,0 l/m 33,8 km/h (5 Bft) N 355 0 min 0 W/m 10,1 C 5,5 C 33,8 km/h (5 Bft)
12.10.2007 09:54 13,9 C 78 % 1015,5 hPa 0,0 l/m 35,0 km/h (5 Bft) N 350 0 min 0 W/m 10,1 C 5,3 C 35,0 km/h (5 Bft)
12.10.2007 09:59 13,9 C 78 % 1015,5 hPa 0,0 l/m 31,8 km/h (5 Bft) N 355 0 min 0 W/m 10,1 C 5,8 C 31,8 km/h (5 Bft)
12.10.2007 10:04 13,9 C 78 % 1015,5 hPa 0,0 l/m 31,8 km/h (5 Bft) N 355 0 min 0 W/m 10,1 C 5,8 C 31,8 km/h (5 Bft)
12.10.2007 10:09 14,0 C 78 % 1016,5 hPa 0,0 l/m 33,3 km/h (5 Bft) N 355 0 min 0 W/m 10,2 C 5,7 C 33,3 km/h (5 Bft)
12.10.2007 10:14 14,0 C 77 % 1016,5 hPa 0,0 l/m 30,7 km/h (5 Bft) N-NW 345 0 min 0 W/m 10,0 C 6,2 C 30,7 km/h (5 Bft)
12.10.2007 10:19 13,9 C 79 % 1016,5 hPa 0,0 l/m 38,3 km/h (6 Bft) N 5 0 min 0 W/m 10,3 C 4,9 C 38,3 km/h (6 Bft)
12.10.2007 10:24 13,7 C 79 % 1016,5 hPa 0,0 l/m 34,5 km/h (5 Bft) N-NO 25 0 min 0 W/m 10,1 C 5,1 C 34,5 km/h (5 Bft)
12.10.2007 10:29 13,6 C 79 % 1016,5 hPa 0,0 l/m 30,2 km/h (5 Bft) N 360 0 min 0 W/m 10,0 C 5,7 C 30,2 km/h (5 Bft)
12.10.2007 10:34 13,5 C 78 % 1016,5 hPa 0,0 l/m 39,6 km/h (6 Bft) N 360 0 min 0 W/m 9,7 C 4,1 C 39,6 km/h (6 Bft)
12.10.2007 10:39 13,6 C 77 % 1016,5 hPa 0,0 l/m 36,4 km/h (5 Bft) N-NO 15 0 min 0 W/m 9,6 C 4,7 C 36,4 km/h (5 Bft)
12.10.2007 10:44 13,6 C 76 % 1016,5 hPa 0,0 l/m 32,1 km/h (5 Bft) N 360 0 min 0 W/m 9,4 C 5,4 C 32,1 km/h (5 Bft)
12.10.2007 10:49 13,6 C 77 % 1016,5 hPa 0,0 l/m 37,0 km/h (5 Bft) N 360 0 min 0 W/m 9,6 C 4,6 C 37,0 km/h (5 Bft)
12.10.2007 10:54 13,6 C 78 % 1016,5 hPa 0,0 l/m 32,2 km/h (5 Bft) N 10 0 min 0 W/m 9,8 C 5,3 C 32,2 km/h (5 Bft)
12.10.2007 10:59 13,4 C 79 % 1016,5 hPa 0,0 l/m 33,9 km/h (5 Bft) N 10 0 min 0 W/m 9,8 C 4,8 C 33,9 km/h (5 Bft)
12.10.2007 11:04 13,4 C 79 % 1016,5 hPa 0,0 l/m 29,5 km/h (5 Bft) N 5 0 min 0 W/m 9,8 C 5,5 C 29,5 km/h (5 Bft)
12.10.2007 11:09 13,5 C 77 % 1016,5 hPa 0,0 l/m 35,6 km/h (5 Bft) N-NO 20 0 min 0 W/m 9,5 C 4,7 C 35,6 km/h (5 Bft)
12.10.2007 11:14 13,5 C 78 % 1016,5 hPa 0,0 l/m 37,4 km/h (5 Bft) N-NO 15 0 min 0 W/m 9,7 C 4,4 C 37,4 km/h (5 Bft)
12.10.2007 11:19 13,5 C 80 % 1017,5 hPa 0,0 l/m 36,4 km/h (5 Bft) N-NO 15 0 min 0 W/m 10,1 C 4,6 C 36,4 km/h (5 Bft)
12.10.2007 11:24 13,3 C 82 % 1017,5 hPa 0,0 l/m 36,4 km/h (5 Bft) N-NO 15 0 min 0 W/m 10,3 C 4,3 C 36,4 km/h (5 Bft)
12.10.2007 11:29 13,2 C 82 % 1017,5 hPa 0,0 l/m 32,1 km/h (5 Bft) N 350 0 min 0 W/m 10,2 C 4,8 C 32,1 km/h (5 Bft)
12.10.2007 11:34 13,3 C 83 % 1017,5 hPa 0,0 l/m 30,6 km/h (5 Bft) N-NO 20 0 min 0 W/m 10,5 C 5,2 C 30,6 km/h (5 Bft)
12.10.2007 11:39 13,4 C 82 % 1017,5 hPa 0,0 l/m 30,5 km/h (5 Bft) N 5 0 min 0 W/m 10,4 C 5,3 C 30,5 km/h (5 Bft)
12.10.2007 11:44 13,5 C 83 % 1017,5 hPa 0,0 l/m 27,9 km/h (5 Bft) N-NO 25 0 min 0 W/m 10,7 C 6,0 C 27,9 km/h (5 Bft)
12.10.2007 11:49 13,6 C 82 % 1017,5 hPa 0,0 l/m 27,9 km/h (5 Bft) N-NO 25 0 min 0 W/m 10,6 C 6,1 C 27,9 km/h (5 Bft)
12.10.2007 11:54 13,7 C 81 % 1017,5 hPa 0,0 l/m 25,1 km/h (4 Bft) N 5 0 min 0 W/m 10,5 C 6,8 C 25,1 km/h (4 Bft)
12.10.2007 11:59 13,8 C 80 % 1017,5 hPa 0,0 l/m 26,0 km/h (4 Bft) N 5 0 min 0 W/m 10,4 C 6,8 C 26,0 km/h (4 Bft)
12.10.2007 12:04 14,2 C 78 % 1017,5 hPa 0,0 l/m 28,8 km/h (5 Bft) N 10 0 min 0 W/m 10,4 C 6,8 C 28,8 km/h (5 Bft)
12.10.2007 12:09 14,5 C 77 % 1017,5 hPa 0,0 l/m 29,0 km/h (5 Bft) N-NO 15 0 min 0 W/m 10,5 C 7,2 C 29,0 km/h (5 Bft)
12.10.2007 12:14 14,4 C 77 % 1017,5 hPa 0,0 l/m 26,5 km/h (4 Bft) N 5 0 min 0 W/m 10,4 C 7,5 C 26,5 km/h (4 Bft)
12.10.2007 12:19 14,0 C 80 % 1017,5 hPa 0,0 l/m 34,0 km/h (5 Bft) N 350 0 min 0 W/m 10,6 C 5,6 C 34,0 km/h (5 Bft)
12.10.2007 12:23 13,6 C 82 % 1017,5 hPa 0,0 l/m 29,8 km/h (5 Bft) N 10 0 min 0 W/m 10,6 C 5,8 C 29,8 km/h (5 Bft)
12.10.2007 12:29 12,9 C 87 % 1018,5 hPa 0,0 l/m 28,7 km/h (5 Bft) N 360 0 min 0 W/m 10,8 C 5,0 C 28,7 km/h (5 Bft)
12.10.2007 12:34 12,9 C 88 % 1018,5 hPa 0,0 l/m 27,6 km/h (5 Bft) N 5 0 min 0 W/m 11,0 C 5,2 C 27,6 km/h (5 Bft)
12.10.2007 12:39 13,0 C 88 % 1017,5 hPa 0,0 l/m 26,0 km/h (4 Bft) N 355 0 min 0 W/m 11,1 C 5,7 C 26,0 km/h (4 Bft)
12.10.2007 12:44 13,3 C 87 % 1017,5 hPa 0,0 l/m 27,0 km/h (5 Bft) N 360 0 min 0 W/m 11,2 C 5,9 C 27,0 km/h (5 Bft)
12.10.2007 12:49 13,6 C 86 % 1017,5 hPa 0,0 l/m 23,8 km/h (4 Bft) N 10 0 min 0 W/m 11,3 C 7,0 C 23,8 km/h (4 Bft)
12.10.2007 12:54 14,0 C 84 % 1017,5 hPa 0,0 l/m 26,5 km/h (4 Bft) N 10 0 min 0 W/m 11,3 C 6,9 C 26,5 km/h (4 Bft)
12.10.2007 12:59 14,4 C 82 % 1017,5 hPa 0,0 l/m 25,9 km/h (4 Bft) N 5 0 min 0 W/m 11,4 C 7,6 C 25,9 km/h (4 Bft)
12.10.2007 13:04 14,4 C 80 % 1017,5 hPa 0,0 l/m 31,3 km/h (5 Bft) N 5 0 min 0 W/m 11,0 C 6,6 C 31,3 km/h (5 Bft)
12.10.2007 13:09 14,3 C 79 % 1017,5 hPa 0,0 l/m 32,1 km/h (5 Bft) N 360 0 min 0 W/m 10,7 C 6,4 C 32,1 km/h (5 Bft)
12.10.2007 13:14 14,0 C 80 % 1017,5 hPa 0,0 l/m 30,2 km/h (5 Bft) N-NO 15 0 min 0 W/m 10,6 C 6,2 C 30,2 km/h (5 Bft)
12.10.2007 13:19 13,8 C 82 % 1017,5 hPa 0,0 l/m 32,2 km/h (5 Bft) N 5 0 min 0 W/m 10,8 C 5,6 C 32,2 km/h (5 Bft)
12.10.2007 13:24 13,7 C 84 % 1018,5 hPa 0,3 l/m 21,0 km/h (4 Bft) N 5 0 min 0 W/m 11,0 C 7,8 C 21,0 km/h (4 Bft)
12.10.2007 13:29 13,2 C 85 % 1018,5 hPa 0,0 l/m 22,0 km/h (4 Bft) N-NO 15 0 min 0 W/m 10,7 C 6,9 C 22,0 km/h (4 Bft)
12.10.2007 13:34 13,3 C 85 % 1018,5 hPa 0,0 l/m 20,1 km/h (4 Bft) N-NO 15 0 min 0 W/m 10,8 C 7,5 C 20,1 km/h (4 Bft)
12.10.2007 13:39 13,4 C 85 % 1018,5 hPa 0,0 l/m 23,0 km/h (4 Bft) N 5 0 min 0 W/m 10,9 C 6,9 C 23,0 km/h (4 Bft)
12.10.2007 13:44 13,6 C 83 % 1018,5 hPa 0,0 l/m 24,0 km/h (4 Bft) N 360 0 min 0 W/m 10,8 C 6,9 C 24,0 km/h (4 Bft)
12.10.2007 13:49 13,6 C 82 % 1018,5 hPa 0,0 l/m 23,8 km/h (4 Bft) N 360 0 min 0 W/m 10,6 C 7,0 C 23,8 km/h (4 Bft)
12.10.2007 13:54 13,7 C 82 % 1018,5 hPa 0,0 l/m 24,3 km/h (4 Bft) N 355 0 min 0 W/m 10,7 C 7,0 C 24,3 km/h (4 Bft)
12.10.2007 13:59 13,7 C 82 % 1018,5 hPa 0,0 l/m 27,3 km/h (5 Bft) N 10 0 min 0 W/m 10,7 C 6,4 C 27,3 km/h (5 Bft)
12.10.2007 14:04 13,7 C 82 % 1018,5 hPa 0,0 l/m 21,2 km/h (4 Bft) N-NO 15 0 min 0 W/m 10,7 C 7,7 C 21,2 km/h (4 Bft)
12.10.2007 14:09 13,9 C 82 % 1018,5 hPa 0,0 l/m 25,0 km/h (4 Bft) N-NO 15 0 min 0 W/m 10,9 C 7,1 C 25,0 km/h (4 Bft)
12.10.2007 14:14 14,0 C 81 % 1018,5 hPa 0,0 l/m 23,6 km/h (4 Bft) N 5 0 min 0 W/m 10,8 C 7,6 C 23,6 km/h (4 Bft)
12.10.2007 14:19 14,0 C 82 % 1018,5 hPa 0,0 l/m 26,6 km/h (4 Bft) N-NO 15 0 min 0 W/m 11,0 C 6,9 C 26,6 km/h (4 Bft)
12.10.2007 14:24 13,4 C 84 % 1018,5 hPa 0,0 l/m 24,2 km/h (4 Bft) N-NO 15 0 min 0 W/m 10,8 C 6,6 C 24,2 km/h (4 Bft)
12.10.2007 14:29 13,2 C 84 % 1018,5 hPa 0,0 l/m 22,5 km/h (4 Bft) N-NO 25 0 min 0 W/m 10,6 C 6,8 C 22,5 km/h (4 Bft)
12.10.2007 14:34 13,2 C 83 % 1018,5 hPa 0,0 l/m 23,0 km/h (4 Bft) N 10 0 min 0 W/m 10,4 C 6,6 C 23,0 km/h (4 Bft)
12.10.2007 14:39 13,4 C 81 % 1018,5 hPa 0,0 l/m 21,5 km/h (4 Bft) N-NO 25 0 min 0 W/m 10,2 C 7,3 C 21,5 km/h (4 Bft)
12.10.2007 14:44 13,4 C 82 % 1018,5 hPa 0,0 l/m 26,5 km/h (4 Bft) N-NO 15 0 min 0 W/m 10,4 C 6,1 C 26,5 km/h (4 Bft)
12.10.2007 14:49 13,5 C 82 % 1018,5 hPa 0,0 l/m 32,0 km/h (5 Bft) N-NO 20 0 min 0 W/m 10,5 C 5,2 C 32,0 km/h (5 Bft)
12.10.2007 14:54 13,5 C 82 % 1018,5 hPa 0,0 l/m 25,2 km/h (4 Bft) N 5 0 min 0 W/m 10,5 C 6,5 C 25,2 km/h (4 Bft)
12.10.2007 14:59 13,5 C 82 % 1018,5 hPa 0,0 l/m 21,0 km/h (4 Bft) N 10 0 min 0 W/m 10,5 C 7,5 C 21,0 km/h (4 Bft)
12.10.2007 15:04 13,7 C 81 % 1018,5 hPa 0,0 l/m 21,6 km/h (4 Bft) N 10 0 min 0 W/m 10,5 C 7,6 C 21,6 km/h (4 Bft)
12.10.2007 15:09 13,7 C 80 % 1018,5 hPa 0,0 l/m 25,5 km/h (4 Bft) N-NO 20 0 min 0 W/m 10,3 C 6,7 C 25,5 km/h (4 Bft)
12.10.2007 15:14 13,8 C 79 % 1018,5 hPa 0,0 l/m 20,3 km/h (4 Bft) N 5 0 min 0 W/m 10,2 C 8,1 C 20,3 km/h (4 Bft)
12.10.2007 15:19 13,8 C 79 % 1018,5 hPa 0,0 l/m 24,6 km/h (4 Bft) N 360 0 min 0 W/m 10,2 C 7,1 C 24,6 km/h (4 Bft)
12.10.2007 15:24 13,9 C 79 % 1018,5 hPa 0,0 l/m 22,5 km/h (4 Bft) N-NO 20 0 min 0 W/m 10,3 C 7,7 C 22,5 km/h (4 Bft)
12.10.2007 15:29 14,0 C 79 % 1018,5 hPa 0,0 l/m 19,5 km/h (3 Bft) N 5 0 min 0 W/m 10,4 C 8,6 C 19,5 km/h (3 Bft)
12.10.2007 15:34 14,1 C 79 % 1018,5 hPa 0,0 l/m 16,5 km/h (3 Bft) N 360 0 min 0 W/m 10,5 C 9,6 C 16,5 km/h (3 Bft)
12.10.2007 15:39 14,3 C 78 % 1018,5 hPa 0,0 l/m 19,4 km/h (3 Bft) N-NO 30 0 min 0 W/m 10,5 C 9,0 C 19,4 km/h (3 Bft)
12.10.2007 15:44 14,3 C 76 % 1018,5 hPa 0,0 l/m 23,5 km/h (4 Bft) N-NO 30 0 min 0 W/m 10,1 C 8,0 C 23,5 km/h (4 Bft)
12.10.2007 15:49 14,2 C 76 % 1018,5 hPa 0,0 l/m 20,4 km/h (4 Bft) N-NO 30 0 min 0 W/m 10,0 C 8,6 C 20,4 km/h (4 Bft)
12.10.2007 15:54 14,0 C 77 % 1018,5 hPa 0,0 l/m 17,0 km/h (3 Bft) N-NO 25 0 min 0 W/m 10,0 C 9,3 C 17,0 km/h (3 Bft)
12.10.2007 15:59 13,8 C 77 % 1018,5 hPa 0,0 l/m 23,1 km/h (4 Bft) N-NO 15 0 min 0 W/m 9,8 C 7,4 C 23,1 km/h (4 Bft)
12.10.2007 16:04 13,8 C 77 % 1018,5 hPa 0,0 l/m 24,4 km/h (4 Bft) N-NO 25 0 min 0 W/m 9,8 C 7,1 C 24,4 km/h (4 Bft)
12.10.2007 16:09 13,8 C 77 % 1018,5 hPa 0,0 l/m 23,6 km/h (4 Bft) N-NO 25 0 min 0 W/m 9,8 C 7,3 C 23,6 km/h (4 Bft)
12.10.2007 16:14 13,8 C 77 % 1019,5 hPa 0,0 l/m 20,2 km/h (4 Bft) N 5 0 min 0 W/m 9,8 C 8,1 C 20,2 km/h (4 Bft)
12.10.2007 16:19 13,8 C 78 % 1019,5 hPa 0,0 l/m 18,6 km/h (3 Bft) N 5 0 min 0 W/m 10,0 C 8,6 C 18,6 km/h (3 Bft)
12.10.2007 16:24 13,7 C 78 % 1019,5 hPa 0,0 l/m 22,5 km/h (4 Bft) N 350 0 min 0 W/m 9,9 C 7,4 C 22,5 km/h (4 Bft)
12.10.2007 16:29 13,8 C 78 % 1019,5 hPa 0,0 l/m 25,0 km/h (4 Bft) N-NO 15 0 min 0 W/m 10,0 C 7,0 C 25,0 km/h (4 Bft)
12.10.2007 16:34 13,9 C 78 % 1019,5 hPa 0,0 l/m 24,3 km/h (4 Bft) N-NO 15 0 min 0 W/m 10,1 C 7,3 C 24,3 km/h (4 Bft)
12.10.2007 16:39 13,9 C 79 % 1019,5 hPa 0,0 l/m 19,1 km/h (3 Bft) N 360 0 min 0 W/m 10,3 C 8,6 C 19,1 km/h (3 Bft)
12.10.2007 16:44 14,0 C 78 % 1019,5 hPa 0,0 l/m 23,7 km/h (4 Bft) N 10 0 min 0 W/m 10,2 C 7,5 C 23,7 km/h (4 Bft)
12.10.2007 16:49 14,0 C 79 % 1019,5 hPa 0,0 l/m 23,4 km/h (4 Bft) N-NO 20 0 min 0 W/m 10,4 C 7,6 C 23,4 km/h (4 Bft)
12.10.2007 16:54 13,9 C 79 % 1019,5 hPa 0,0 l/m 24,5 km/h (4 Bft) N 5 0 min 0 W/m 10,3 C 7,2 C 24,5 km/h (4 Bft)
12.10.2007 16:59 13,7 C 79 % 1019,5 hPa 0,0 l/m 21,6 km/h (4 Bft) N 10 0 min 0 W/m 10,1 C 7,6 C 21,6 km/h (4 Bft)
12.10.2007 17:04 13,5 C 79 % 1019,5 hPa 0,0 l/m 21,1 km/h (4 Bft) N 5 0 min 0 W/m 9,9 C 7,5 C 21,1 km/h (4 Bft)
12.10.2007 17:09 13,4 C 80 % 1019,5 hPa 0,0 l/m 22,0 km/h (4 Bft) N 355 0 min 0 W/m 10,0 C 7,2 C 22,0 km/h (4 Bft)
12.10.2007 17:14 13,5 C 80 % 1019,5 hPa 0,0 l/m 22,1 km/h (4 Bft) N 355 0 min 0 W/m 10,1 C 7,3 C 22,1 km/h (4 Bft)
12.10.2007 17:19 13,4 C 78 % 1019,5 hPa 0,0 l/m 16,6 km/h (3 Bft) N 350 0 min 0 W/m 9,6 C 8,7 C 16,6 km/h (3 Bft)
12.10.2007 17:24 13,3 C 78 % 1019,5 hPa 0,0 l/m 20,3 km/h (4 Bft) N 10 0 min 0 W/m 9,5 C 7,5 C 20,3 km/h (4 Bft)
12.10.2007 17:29 13,3 C 78 % 1019,5 hPa 0,0 l/m 19,3 km/h (3 Bft) N 10 0 min 0 W/m 9,5 C 7,7 C 19,3 km/h (3 Bft)
12.10.2007 17:34 13,2 C 80 % 1019,5 hPa 0,0 l/m 19,9 km/h (4 Bft) N-NO 15 0 min 0 W/m 9,8 C 7,4 C 19,9 km/h (4 Bft)
12.10.2007 17:39 13,3 C 80 % 1019,5 hPa 0,0 l/m 16,6 km/h (3 Bft) N 10 0 min 0 W/m 9,9 C 8,6 C 16,6 km/h (3 Bft)
12.10.2007 17:44 13,2 C 80 % 1019,5 hPa 0,0 l/m 20,0 km/h (4 Bft) N 10 0 min 0 W/m 9,8 C 7,4 C 20,0 km/h (4 Bft)
12.10.2007 17:49 13,2 C 81 % 1020,5 hPa 0,0 l/m 19,5 km/h (3 Bft) N 350 0 min 0 W/m 10,0 C 7,6 C 19,5 km/h (3 Bft)
12.10.2007 17:54 13,1 C 81 % 1020,5 hPa 0,0 l/m 15,6 km/h (3 Bft) N 10 0 min 0 W/m 9,9 C 8,7 C 15,6 km/h (3 Bft)
12.10.2007 17:59 13,0 C 81 % 1020,5 hPa 0,0 l/m 27,8 km/h (5 Bft) N-NO 20 0 min 0 W/m 9,8 C 5,3 C 27,8 km/h (5 Bft)
12.10.2007 18:04 12,9 C 81 % 1020,5 hPa 0,0 l/m 15,5 km/h (3 Bft) N-NO 20 0 min 0 W/m 9,7 C 8,5 C 15,5 km/h (3 Bft)
12.10.2007 18:09 12,8 C 82 % 1020,5 hPa 0,0 l/m 19,1 km/h (3 Bft) N-NO 30 0 min 0 W/m 9,8 C 7,2 C 19,1 km/h (3 Bft)
12.10.2007 18:14 12,8 C 83 % 1020,5 hPa 0,0 l/m 16,4 km/h (3 Bft) N-NO 25 0 min 0 W/m 10,0 C 8,0 C 16,4 km/h (3 Bft)
12.10.2007 18:19 12,8 C 83 % 1020,5 hPa 0,0 l/m 15,5 km/h (3 Bft) N-NO 15 0 min 0 W/m 10,0 C 8,3 C 15,5 km/h (3 Bft)
12.10.2007 18:24 12,5 C 84 % 1020,5 hPa 0,0 l/m 16,8 km/h (3 Bft) N-NO 20 0 min 0 W/m 9,9 C 7,5 C 16,8 km/h (3 Bft)
12.10.2007 18:29 12,4 C 84 % 1020,5 hPa 0,0 l/m 15,3 km/h (3 Bft) N-NO 15 0 min 0 W/m 9,8 C 7,9 C 15,3 km/h (3 Bft)
12.10.2007 18:34 12,4 C 84 % 1020,5 hPa 0,0 l/m 13,8 km/h (3 Bft) N-NO 15 0 min 0 W/m 9,8 C 8,5 C 13,8 km/h (3 Bft)
12.10.2007 18:38 12,3 C 84 % 1020,5 hPa 0,0 l/m 12,3 km/h (2 Bft) N-NO 20 0 min 0 W/m 9,7 C 9,0 C 12,3 km/h (2 Bft)
12.10.2007 18:44 12,1 C 85 % 1020,5 hPa 0,0 l/m 10,4 km/h (2 Bft) N-NO 25 0 min 0 W/m 9,7 C 9,7 C 10,4 km/h (2 Bft)
12.10.2007 18:49 12,1 C 85 % 1020,5 hPa 0,0 l/m 12,5 km/h (2 Bft) N 10 0 min 0 W/m 9,7 C 8,7 C 12,5 km/h (2 Bft)
12.10.2007 18:54 12,0 C 85 % 1020,5 hPa 0,0 l/m 11,5 km/h (2 Bft) N-NO 25 0 min 0 W/m 9,6 C 9,1 C 11,5 km/h (2 Bft)
12.10.2007 18:59 11,8 C 86 % 1020,5 hPa 0,0 l/m 10,5 km/h (2 Bft) N 5 0 min 0 W/m 9,5 C 9,3 C 10,5 km/h (2 Bft)
12.10.2007 19:04 11,8 C 86 % 1020,5 hPa 0,0 l/m 12,6 km/h (3 Bft) N 5 0 min 0 W/m 9,5 C 8,3 C 12,6 km/h (3 Bft)
12.10.2007 19:09 11,8 C 87 % 1020,5 hPa 0,0 l/m 13,6 km/h (3 Bft) N-NO 20 0 min 0 W/m 9,7 C 7,9 C 13,6 km/h (3 Bft)
12.10.2007 19:14 11,8 C 87 % 1020,5 hPa 0,0 l/m 12,6 km/h (3 Bft) N 5 0 min 0 W/m 9,7 C 8,3 C 12,6 km/h (3 Bft)
12.10.2007 19:19 11,8 C 88 % 1020,5 hPa 0,0 l/m 13,0 km/h (3 Bft) N 5 0 min 0 W/m 9,9 C 8,1 C 13,0 km/h (3 Bft)
12.10.2007 19:24 11,8 C 87 % 1020,5 hPa 0,0 l/m 11,5 km/h (2 Bft) N-NO 15 0 min 0 W/m 9,7 C 8,8 C 11,5 km/h (2 Bft)
12.10.2007 19:29 11,8 C 88 % 1021,5 hPa 0,0 l/m 13,0 km/h (3 Bft) N-NO 15 0 min 0 W/m 9,9 C 8,1 C 13,0 km/h (3 Bft)
12.10.2007 19:34 11,8 C 89 % 1021,5 hPa 0,0 l/m 16,1 km/h (3 Bft) N-NO 15 0 min 0 W/m 10,0 C 6,9 C 16,1 km/h (3 Bft)
12.10.2007 19:39 11,8 C 89 % 1021,5 hPa 0,0 l/m 11,0 km/h (2 Bft) N-NO 25 0 min 0 W/m 10,0 C 9,1 C 11,0 km/h (2 Bft)
12.10.2007 19:44 11,8 C 88 % 1021,5 hPa 0,0 l/m 12,1 km/h (2 Bft) N-NO 15 0 min 0 W/m 9,9 C 8,5 C 12,1 km/h (2 Bft)
12.10.2007 19:49 11,8 C 89 % 1021,5 hPa 0,0 l/m 12,5 km/h (2 Bft) N-NO 15 0 min 0 W/m 10,0 C 8,4 C 12,5 km/h (2 Bft)
12.10.2007 19:54 11,8 C 89 % 1021,5 hPa 0,0 l/m 14,9 km/h (3 Bft) N-NO 25 0 min 0 W/m 10,0 C 7,4 C 14,9 km/h (3 Bft)
12.10.2007 19:59 11,8 C 89 % 1021,5 hPa 0,0 l/m 11,9 km/h (2 Bft) N-NO 15 0 min 0 W/m 10,0 C 8,6 C 11,9 km/h (2 Bft)
12.10.2007 20:04 11,8 C 89 % 1021,5 hPa 0,0 l/m 11,3 km/h (2 Bft) N-NO 20 0 min 0 W/m 10,0 C 8,9 C 11,3 km/h (2 Bft)
12.10.2007 20:09 11,7 C 89 % 1021,5 hPa 0,0 l/m 10,0 km/h (2 Bft) N-NO 15 0 min 0 W/m 9,9 C 9,5 C 10,0 km/h (2 Bft)
12.10.2007 20:14 11,7 C 89 % 1021,5 hPa 0,0 l/m 11,0 km/h (2 Bft) N-NO 15 0 min 0 W/m 9,9 C 9,0 C 11,0 km/h (2 Bft)
12.10.2007 20:19 11,6 C 90 % 1021,5 hPa 0,0 l/m 11,0 km/h (2 Bft) N-NO 15 0 min 0 W/m 10,0 C 8,8 C 11,0 km/h (2 Bft)
12.10.2007 20:24 11,5 C 89 % 1021,5 hPa 0,0 l/m 8,4 km/h (2 Bft) N-NO 15 0 min 0 W/m 9,8 C 10,2 C 8,4 km/h (2 Bft)
12.10.2007 20:29 11,4 C 90 % 1021,5 hPa 0,0 l/m 10,0 km/h (2 Bft) N-NO 15 0 min 0 W/m 9,8 C 9,1 C 10,0 km/h (2 Bft)
12.10.2007 20:34 11,3 C 90 % 1021,5 hPa 0,0 l/m 9,1 km/h (2 Bft) N-NO 15 0 min 0 W/m 9,7 C 9,5 C 9,1 km/h (2 Bft)
12.10.2007 20:39 11,4 C 91 % 1021,5 hPa 0,0 l/m 7,8 km/h (2 Bft) N-NO 20 0 min 0 W/m 10,0 C 10,5 C 7,8 km/h (2 Bft)
12.10.2007 20:44 11,4 C 91 % 1021,5 hPa 0,0 l/m 9,5 km/h (2 Bft) N-NO 30 0 min 0 W/m 10,0 C 9,4 C 9,5 km/h (2 Bft)
12.10.2007 20:49 11,4 C 91 % 1021,5 hPa 0,0 l/m 9,7 km/h (2 Bft) N-NO 25 0 min 0 W/m 10,0 C 9,3 C 9,7 km/h (2 Bft)
12.10.2007 20:54 11,4 C 91 % 1021,5 hPa 0,0 l/m 8,5 km/h (2 Bft) N-NO 20 0 min 0 W/m 10,0 C 10,0 C 8,5 km/h (2 Bft)
12.10.2007 20:59 11,3 C 91 % 1022,5 hPa 0,0 l/m 7,8 km/h (2 Bft) N-NO 25 0 min 0 W/m 9,9 C 10,3 C 7,8 km/h (2 Bft)
12.10.2007 21:04 11,3 C 91 % 1022,5 hPa 0,0 l/m 9,8 km/h (2 Bft) N-NO 30 0 min 0 W/m 9,9 C 9,1 C 9,8 km/h (2 Bft)
12.10.2007 21:09 11,3 C 91 % 1022,5 hPa 0,0 l/m 7,2 km/h (2 Bft) N-NO 25 0 min 0 W/m 9,9 C 10,8 C 7,2 km/h (2 Bft)
12.10.2007 21:14 11,3 C 92 % 1022,5 hPa 0,0 l/m 12,3 km/h (2 Bft) N-NO 20 0 min 0 W/m 10,0 C 7,9 C 12,3 km/h (2 Bft)
12.10.2007 21:19 11,3 C 92 % 1022,5 hPa 0,0 l/m 7,6 km/h (2 Bft) N-NO 30 0 min 0 W/m 10,0 C 10,5 C 7,6 km/h (2 Bft)
12.10.2007 21:24 11,3 C 92 % 1022,5 hPa 0,0 l/m 9,4 km/h (2 Bft) NO 35 0 min 0 W/m 10,0 C 9,4 C 9,4 km/h (2 Bft)
12.10.2007 21:29 11,2 C 93 % 1022,5 hPa 0,0 l/m 14,5 km/h (3 Bft) NO 35 0 min 0 W/m 10,1 C 6,8 C 14,5 km/h (3 Bft)
12.10.2007 21:34 11,2 C 93 % 1022,5 hPa 0,0 l/m 17,6 km/h (3 Bft) NO 40 0 min 0 W/m 10,1 C 5,6 C 17,6 km/h (3 Bft)
12.10.2007 21:39 11,1 C 92 % 1022,5 hPa 0,0 l/m 8,4 km/h (2 Bft) NO 50 0 min 0 W/m 9,8 C 9,8 C 8,4 km/h (2 Bft)
12.10.2007 21:44 10,9 C 92 % 1022,5 hPa 0,0 l/m 6,5 km/h (2 Bft) N-NO 30 0 min 0 W/m 9,7 C 10,9 C 6,5 km/h (2 Bft)
12.10.2007 21:49 10,8 C 92 % 1022,5 hPa 0,0 l/m 9,1 km/h (2 Bft) O-NO 75 0 min 0 W/m 9,6 C 9,0 C 9,1 km/h (2 Bft)
12.10.2007 21:54 10,7 C 93 % 1022,5 hPa 0,0 l/m 14,1 km/h (3 Bft) O 95 0 min 0 W/m 9,6 C 6,4 C 14,1 km/h (3 Bft)
12.10.2007 21:59 10,6 C 93 % 1022,5 hPa 0,0 l/m 15,6 km/h (3 Bft) O-NO 65 0 min 0 W/m 9,5 C 5,6 C 15,6 km/h (3 Bft)
12.10.2007 22:04 10,5 C 92 % 1022,5 hPa 0,0 l/m 3,6 km/h (1 Bft) O-SO 115 0 min 0 W/m 9,3 C 10,5 C 3,6 km/h (1 Bft)
12.10.2007 22:09 10,4 C 92 % 1022,5 hPa 0,0 l/m 10,8 km/h (2 Bft) O-SO 115 0 min 0 W/m 9,2 C 7,6 C 10,8 km/h (2 Bft)
12.10.2007 22:14 10,3 C 92 % 1022,5 hPa 0,0 l/m 12,8 km/h (3 Bft) O-SO 105 0 min 0 W/m 9,1 C 6,5 C 12,8 km/h (3 Bft)
12.10.2007 22:19 10,1 C 92 % 1022,5 hPa 0,0 l/m 12,0 km/h (2 Bft) O 90 0 min 0 W/m 8,9 C 6,6 C 12,0 km/h (2 Bft)
12.10.2007 22:24 10,0 C 92 % 1023,5 hPa 0,0 l/m 9,5 km/h (2 Bft) O 80 0 min 0 W/m 8,8 C 7,9 C 9,5 km/h (2 Bft)
12.10.2007 22:29 9,8 C 91 % 1023,5 hPa 0,0 l/m 11,3 km/h (2 Bft) NO 50 0 min 0 W/m 8,4 C 6,6 C 11,3 km/h (2 Bft)
12.10.2007 22:34 9,7 C 91 % 1023,5 hPa 0,0 l/m 6,0 km/h (2 Bft) N 5 0 min 0 W/m 8,3 C 9,7 C 6,0 km/h (2 Bft)
12.10.2007 22:39 9,6 C 91 % 1023,5 hPa 0,0 l/m 3,3 km/h (1 Bft) NW 310 0 min 0 W/m 8,2 C 9,6 C 3,3 km/h (1 Bft)
12.10.2007 22:44 9,5 C 92 % 1023,5 hPa 0,0 l/m 15,1 km/h (3 Bft) NO 45 0 min 0 W/m 8,3 C 4,5 C 15,1 km/h (3 Bft)
12.10.2007 22:49 9,5 C 91 % 1023,5 hPa 0,0 l/m 2,4 km/h (1 Bft) NO 35 0 min 0 W/m 8,1 C 9,5 C 2,4 km/h (1 Bft)
12.10.2007 22:54 9,4 C 91 % 1023,5 hPa 0,0 l/m 9,0 km/h (2 Bft) O 85 0 min 0 W/m 8,0 C 7,6 C 9,0 km/h (2 Bft)
12.10.2007 22:59 9,2 C 91 % 1023,5 hPa 0,0 l/m 6,1 km/h (2 Bft) O-SO 105 0 min 0 W/m 7,8 C 9,2 C 6,1 km/h (2 Bft)
12.10.2007 23:04 9,0 C 91 % 1023,5 hPa 0,0 l/m 1,4 km/h (1 Bft) NO 50 0 min 0 W/m 7,6 C 9,0 C 1,4 km/h (1 Bft)
12.10.2007 23:09 8,9 C 91 % 1023,5 hPa 0,0 l/m 9,6 km/h (2 Bft) O-NO 65 0 min 0 W/m 7,5 C 6,6 C 9,6 km/h (2 Bft)
12.10.2007 23:14 8,8 C 91 % 1023,5 hPa 0,0 l/m 10,2 km/h (2 Bft) SO 125 0 min 0 W/m 7,4 C 6,1 C 10,2 km/h (2 Bft)
12.10.2007 23:19 8,8 C 91 % 1023,5 hPa 0,0 l/m 9,5 km/h (2 Bft) O 90 0 min 0 W/m 7,4 C 6,6 C 9,5 km/h (2 Bft)
12.10.2007 23:24 8,8 C 91 % 1023,5 hPa 0,0 l/m 9,5 km/h (2 Bft) O 90 0 min 0 W/m 7,4 C 6,6 C 9,5 km/h (2 Bft)
12.10.2007 23:29 8,8 C 91 % 1023,5 hPa 0,0 l/m 16,2 km/h (3 Bft) O 80 0 min 0 W/m 7,4 C 3,2 C 16,2 km/h (3 Bft)
12.10.2007 23:34 8,7 C 91 % 1023,5 hPa 0,0 l/m 13,6 km/h (3 Bft) O 80 0 min 0 W/m 7,3 C 4,2 C 13,6 km/h (3 Bft)
12.10.2007 23:39 8,7 C 91 % 1023,5 hPa 0,0 l/m 17,0 km/h (3 Bft) O-SO 105 0 min 0 W/m 7,3 C 2,7 C 17,0 km/h (3 Bft)
12.10.2007 23:44 8,7 C 91 % 1023,5 hPa 0,0 l/m 9,2 km/h (2 Bft) O-SO 110 0 min 0 W/m 7,3 C 6,7 C 9,2 km/h (2 Bft)
12.10.2007 23:49 8,7 C 91 % 1023,5 hPa 0,0 l/m 14,0 km/h (3 Bft) O-NO 60 0 min 0 W/m 7,3 C 4,0 C 14,0 km/h (3 Bft)
12.10.2007 23:54 8,7 C 91 % 1023,5 hPa 0,0 l/m 11,0 km/h (2 Bft) O 80 0 min 0 W/m 7,3 C 5,6 C 11,0 km/h (2 Bft)
12.10.2007 23:59 8,6 C 90 % 1024,5 hPa 0,0 l/m 17,6 km/h (3 Bft) O-SO 105 0 min 0 W/m 7,1 C 2,4 C 17,6 km/h (3 Bft)
_ Min-Zeit 23:59 10:44 05:34 - 23:04 - - - - 23:59 23:59 23:04
Minimum _ 8,6 C 76 % 1014,5 hPa - 1,4 km/h (1 Bft) - - - - 7,1 C 2,4 C 1,4 km/h (1 Bft)
_ Max-Zeit 12:09 03:04 23:59 03:04 10:34 - - 03:04 03:04 03:04 21:44 10:34
Maximum _ 14,5 C 98 % 1024,5 hPa 0,3 l/m 39,6 km/h
N (6 Bft)
- - 0 min 0 W/m 13,8 C 10,9 C 39,6 km/h
N (6 Bft)
Durchschnitt _ 13,1 C 87 % 1018,1 hPa #0,6 l/m 21,7 km/h (4 Bft) N - #0 min. 0 W/m 11,0 C 7,3 C 21,7 km/h (4 Bft)
copyright by Holger Just